Location: Newark
(25.4800°N, 85.7200°E)
Time: 09:38:05
(UTC+00:00)

Explorer 11/Cluster Stage 4 - Pass Details

Date: 19 August 2019
Orbit: 467 x 1259 km, 28.8° (Epoch: 20 October)

Event Time Altitude Azimuth Distance (km) Brightness Sun altitude
Rises 08:47:50 0° 276° (W) 4,071 10.8 53.2°
Reaches altitude 10° 08:50:55 10° 279° (W) 3,024 10.3 52.5°
Maximum altitude 08:58:21 66° 1° (N) 1,071 8.0 50.9°
Drops below altitude 10° 09:04:22 10° 84° (E) 2,469 8.8 49.6°
Sets 09:06:40 0° 87° (E) 3,283 9.4 49.0°
